Location: Unspecified
(48.5670°N, 0.0000°E)
Time: 00:26:37
(UTC+00:00)

deb Explorer IX - All Passes

Search period start: 23 July 2019 00:00
Search period end: 02 August 2019 00:00
Orbit: 539 x 1112 km, 38.8° (Epoch: 21 July)

Date Brightness Start Highest point End Pass type
(mag) Time Alt. Az. Time Alt. Az. Time Alt. Az.
23 Jul - 02:05:47 10° SSW 02:08:39 17° SSE 02:11:23 10° SE visible
23 Jul - 03:51:32 10° SW 03:54:39 21° S 03:57:44 10° SE daylight
23 Jul - 05:38:43 10° SW 05:40:35 13° SSW 05:42:28 10° S daylight
24 Jul - 01:43:47 10° SSW 01:46:48 18° SSE 01:49:39 10° SE visible
24 Jul - 03:29:38 10° SW 03:32:49 21° S 03:35:55 10° SE visible
24 Jul - 05:16:58 10° SW 05:18:44 12° SSW 05:20:30 10° S daylight
25 Jul - 01:21:45 10° SSW 01:24:56 19° SSE 01:27:55 10° ESE visible
25 Jul - 03:07:44 10° SW 03:10:59 21° S 03:14:06 10° SE visible
25 Jul - 04:55:11 10° SW 04:56:53 12° SSW 04:58:33 10° S daylight
26 Jul - 00:59:42 10° SW 01:03:04 20° S 01:06:12 10° ESE visible
26 Jul - 02:45:47 10° SW 02:49:08 22° S 02:52:19 10° SE visible
26 Jul - 04:33:22 10° SW 04:35:01 12° SSW 04:36:39 10° S daylight
26 Jul - 22:54:55 10° SSE 22:55:11 10° SSE 22:55:28 10° SSE night (unlit)
27 Jul - 00:37:38 10° SW 00:41:12 20° S 00:44:29 10° ESE visible
27 Jul - 02:23:48 10° WSW 02:27:17 22° S 02:30:31 10° SE visible
27 Jul - 04:11:30 10° SW 04:13:09 12° SSW 04:14:47 10° S daylight
27 Jul - 22:31:53 10° S 22:33:16 11° SSE 22:34:37 10° SE night (unlit)
28 Jul - 00:15:32 10° SW 00:19:19 21° S 00:22:46 10° ESE night (unlit)
28 Jul - 02:01:49 10° WSW 02:05:26 23° S 02:08:46 10° SE visible
28 Jul - 03:49:36 10° SW 03:51:18 12° SSW 03:52:57 10° S visible
28 Jul - 22:09:21 10° S 22:11:21 12° SSE 22:13:14 10° SE night (unlit)
28 Jul - 23:53:25 10° SW 23:57:26 22° S 00:01:02 10° ESE night (unlit)
29 Jul - 01:39:48 10° WSW 01:43:34 23° S 01:47:00 10° SE visible
29 Jul - 03:27:39 10° SW 03:29:25 12° SSW 03:31:08 10° S visible
29 Jul - 21:46:56 10° S 21:49:24 13° SSE 21:51:44 10° SE visible
29 Jul - 23:31:17 10° SW 23:35:32 24° S 23:39:19 10° ESE night (unlit)
30 Jul - 01:17:45 10° WSW 01:21:41 24° S 01:25:14 10° SE visible
30 Jul - 03:05:40 10° SW 03:07:33 12° SSW 03:09:21 10° S visible
30 Jul - 21:24:33 10° S 21:27:27 14° SSE 21:30:10 10° SE visible
30 Jul - 23:09:08 10° SW 23:13:37 25° S 23:17:35 10° ESE visible
31 Jul - 00:55:41 10° WSW 00:59:48 25° S 01:03:29 10° SE night (unlit)
31 Jul - 02:43:39 10° SW 02:45:40 13° SSW 02:47:35 10° S visible
31 Jul - 21:02:13 10° S 21:05:29 15° SSE 21:08:32 10° ESE visible
31 Jul - 22:46:59 10° SW 22:51:41 26° S 22:55:50 10° ESE visible
01 Aug - 00:33:36 10° WSW 00:37:55 25° S 00:41:44 10° SE night (unlit)
01 Aug - 02:21:36 10° SW 02:23:46 13° SSW 02:25:50 10° S night (unlit)
01 Aug - 20:39:54 10° S 20:43:30 16° SSE 20:46:51 10° ESE visible
01 Aug - 22:24:49 10° SW 22:29:44 27° S 22:34:05 10° ESE visible
